Simultaneous Nadir Overpasses (SNOs) Predictions

Prediction of SNOs between AQUA and NOAA-19 Satellite Orbit:

Table of predicted SNOs for the next 14.0 days since TLE Epoch: 7/8/2023
Index Date (AQUA) Time (AQUA) Lat,Lon (AQUA) SZA (AQUA ) Date (NOAA-19) Time (NOAA-19) Lat,Lon (NOAA-19) SZA (NOAA-19 ) Distance(km) Time Diff (sec)
1 07/09/2023 15:39:08 76.39, -63.86 54.23 07/09/2023 15:38:32 76.40, -63.83 54.25 1.94 36
2 07/09/2023 16:28:33 -76.45, 103.57 125.69 07/09/2023 16:29:26 -76.44, 103.61 125.71 1.43 53
3 07/11/2023 20:21:09 76.37,-134.29 54.50 07/11/2023 20:20:01 76.36,-134.31 54.50 1.76 68
4 07/11/2023 21:10:34 -76.43, 33.15 125.43 07/11/2023 21:10:55 -76.41, 33.16 125.46 3.21 21
5 07/14/2023 01:52:33 -76.40, -37.20 125.16 07/14/2023 01:52:22 -76.41, -37.15 125.15 1.77 11
6 07/14/2023 02:42:09 76.92, 128.61 55.45 07/14/2023 02:43:13 76.95, 132.34 55.30 93.85 64
7 07/16/2023 06:34:33 -76.39,-107.65 124.83 07/16/2023 06:33:51 -76.36,-107.64 124.85 3.69 42
8 07/16/2023 07:23:59 76.44, 59.82 55.24 07/16/2023 07:24:53 76.41, 59.82 55.21 3.02 54
9 07/18/2023 11:16:32 -76.36,-178.04 124.49 07/18/2023 11:15:19 -76.34,-177.99 124.49 2.33 73
10 07/18/2023 12:05:58 76.42, -10.58 55.59 07/18/2023 12:06:21 76.39, -10.59 55.56 3.58 23
11 07/20/2023 16:47:56 76.38, -80.91 55.94 07/20/2023 16:47:48 76.39, -80.85 55.96 2.40 8



Historial Predications of SNOs between AQUA and NOAA-19
